Location: Bastrop State Park
(30.1090°N, 97.2819°W)
Time: 00:26:31
(UTC-05:00)

Daily predictions for brighter satellites

Satellite Brightness Start Highest point End
(mag) Time Altitude Azimuth Time Altitude Azimuth Time Altitude Azimuth
Cosmos 1943 Rocket 4.4 03:04:46 10° N 03:06:33 20° N 03:06:33 20° N
SL-16 R/B 3.4 03:34:30 45° NE 03:34:30 45° NE 03:39:35 10° N
Lacrosse 5 rocket 3.9 03:50:27 21° ENE 03:50:27 21° ENE 03:52:13 10° NE
ARIANE 5 R/B 3.8 03:57:00 10° N 04:00:03 36° N 04:00:03 36° N
COSMOS 2455 3.8 04:00:09 10° N 04:05:53 45° ENE 04:11:36 10° SE
Cosmos 1818 4.4 04:08:43 45° E 04:08:43 45° E 04:13:10 10° NE
Okean O Rocket 4.3 04:08:00 10° ENE 04:09:57 13° E 04:11:35 11° ESE
NOSS 3-2 (C) 4.1 04:08:29 10° NNW 04:16:18 79° ENE 04:24:33 10° SSE
USA 267 3.1 04:16:15 10° SE 04:22:48 88° NE 04:29:22 10° NW
CENTAUR R/B 4.4 04:26:40 10° NNW 04:34:05 39° NE 04:41:49 10° ESE
Cosmos 724 4.1 04:28:43 10° NNW 04:34:46 84° WSW 04:35:03 80° SSW
MOZ.5/SAFIR/RUBIN 5/SL-8 3.9 04:37:43 71° ENE 04:37:43 71° ENE 04:42:16 10° N
COSMOS 2406 4.2 04:39:50 32° NW 04:39:50 32° NW 04:44:09 10° N
Cosmos 2082 Rocket 3.9 04:35:30 16° SSE 04:38:57 28° ESE 04:43:43 10° NE
ADEOS Rocket 3.7 04:33:42 10° N 04:38:59 41° WNW 04:38:59 41° WNW
Resurs 1-4 Rocket 3.4 04:36:07 10° N 04:39:09 26° NW 04:39:09 26° NW
CZ-2D R/B 3.5 04:39:48 10° NNW 04:42:53 25° NW 04:42:53 25° NW
Cosmos 1833 Rocket 4.4 04:40:49 14° SSE 04:44:35 28° ESE 04:49:15 10° NE
Cosmos 389 Rocket 4.2 04:46:01 10° NNE 04:49:18 32° E 04:50:47 23° ESE
Cosmos 1953 3.8 04:45:39 10° N 04:47:43 29° NNW 04:47:43 29° NNW
Cosmos 1707 3.2 04:50:19 60° ENE 04:50:19 60° ENE 04:53:53 10° NNE
CZ-4B R/B 4.4 04:48:14 10° NNE 04:53:09 37° E 04:57:40 12° SSE
Landsat 4 4.4 04:53:39 42° ESE 04:54:28 52° ENE 04:58:05 10° N
Cosmos 1470 3.0 04:54:30 10° N 04:58:21 64° E 04:59:05 51° SE
NOSS 3-2 (A) 4.3 04:51:04 10° NW 04:58:23 44° WSW 05:06:03 10° S
CZ-3 R/B 4.1 04:48:03 23° SSW 04:58:45 34° S 05:06:24 10° ESE
Cosmos 1624 Rocket 3.8 04:56:19 10° NNW 05:01:32 80° WSW 05:06:08 14° S
OAO 1 Rocket 4.3 05:02:01 49° WNW 05:03:29 83° SSW 05:08:48 10° ESE
Cosmos 1727 Rocket 3.9 05:01:32 37° SSW 05:04:05 74° W 05:10:16 10° N
Cosmos-2242 3.1 05:01:30 10° N 05:05:54 77° E 05:08:27 25° SSE
PSLV R/B 4.5 05:03:47 10° NNE 05:08:00 46° E 05:10:59 18° SSE
Cosmos 2056 Rocket 3.4 05:09:20 10° NNW 05:14:34 64° WSW 05:19:42 10° S
Intelsat 5-3 Rocket 3.3 05:17:09 27° SSE 05:17:09 27° SSE 05:18:59 10° ESE
Cosmos 921 Rocket 3.0 05:12:09 10° NNW 05:16:37 66° WSW 05:19:28 22° S
Meteor 1-24 Rocket 4.3 05:11:31 10° S 05:16:44 55° E 05:22:07 10° NNE
SL-16 R/B 4.0 05:19:34 17° WNW 05:19:34 17° WNW 05:21:54 10° NW
Cosmos 1153 Rocket 4.4 05:13:00 10° N 05:19:09 89° E 05:25:17 10° S
Cosmos 1378 3.0 05:23:26 49° SW 05:24:14 66° W 05:27:57 10° N
PSLV R/B 4.0 05:21:17 10° N 05:25:17 54° WNW 05:26:25 40° SW
CZ-3A R/B 3.9 05:22:23 19° SSW 05:26:36 39° SE 05:56:15 10° E
CZ-4B R/B 3.0 05:22:40 10° N 05:26:59 71° WNW 05:29:22 27° SSW
Lacrosse 5 rocket 3.1 05:26:10 21° WNW 05:27:14 23° NW 05:30:57 10° N
MOS 1 Rocket 4.2 05:24:39 10° NNW 05:28:19 27° WNW 05:28:31 27° WNW
Cosmos 374 Rocket 4.3 05:28:47 10° NNW 05:32:36 80° WSW 05:37:11 10° SSE
IRS-1C Rocket 4.0 05:34:32 10° N 05:39:47 68° WNW 05:44:35 12° SSW
Cosmos 158 Rocket 3.8 05:39:25 12° SSW 05:44:00 89° WNW 05:49:04 10° NNE
Timation 2 Rocket 4.3 05:37:19 10° SSW 05:44:05 74° ESE 05:50:38 10° NNE
COSMOS 2487 3.6 05:45:51 24° W 05:46:24 25° WNW 05:49:24 10° NNW
Okean O Rocket 2.1 05:42:16 10° N 05:46:25 40° WNW 05:49:04 20° SW
Cosmos 1733 4.2 05:43:30 10° NW 05:46:37 24° W 05:46:56 24° W
CZ-4B DEB 4.3 05:42:01 10° N 05:47:25 60° WNW 05:52:46 10° SSW
Meteor 2-5 Rocket 4.2 05:44:58 18° SW 05:48:37 39° WNW 05:53:59 10° N
Cosmos 1452 Rocket 3.4 05:44:34 10° NNW 05:49:49 78° WSW 05:55:03 10° S
Cosmos 1459 Rocket 4.0 05:44:03 10° N 05:50:14 89° W 05:56:30 10° S
ADEOS II 2.4 05:45:30 10° N 05:50:30 47° WNW 05:55:02 12° SW
SWIFT 4.3 05:50:32 13° SSW 05:51:12 13° SSW 05:53:19 10° SSE
COSMOS 2455 3.9 05:47:04 10° WNW 05:51:24 21° WSW 05:55:43 10° SSW
EO 1 Del DPAF 3.2 05:47:39 10° SSE 05:51:30 87° ENE 05:55:22 10° NNW
IRAS Rocket 4.2 05:48:12 10° NNE 05:53:49 79° WNW 05:59:26 10° SSW
Tiangong 1 4.0 05:56:45 10° N 05:57:23 11° NNE 05:58:02 10° NNE
Cosmos 2278 3.7 05:53:52 10° NNW 05:59:36 87° WSW 06:05:18 10° SSE
Cosmos 1697 Rocket 4.2 05:54:54 10° N 06:00:10 40° ENE 06:05:24 10° SE
USA 267 4.5 06:02:04 10° SSW 06:06:07 17° WSW 06:10:11 10° W
Cosmos 2369 3.7 06:00:36 10° NNW 06:06:20 78° WSW 06:12:02 10° SSE
Cosmos 1048 Rocket 4.4 06:03:30 10° SW 06:08:21 42° WNW 06:13:13 10° N
Cosmos 1420 Rocket 4.0 06:03:10 10° NNW 06:08:30 83° WSW 06:13:46 10° SSE
Feng Yun 1-1 Rocket 4.2 06:07:14 10° NNE 06:12:42 88° ESE 06:18:05 10° SSW
DELTA 2 R/B(2) 4.2 06:12:42 15° W 06:13:49 30° NNW 06:15:40 10° NE
Meteor 2-1 Rocket 4.2 06:11:24 10° NNW 06:17:03 74° W 06:22:48 10° S
Cosmos 2100 Rocket 4.3 06:15:39 10° NNW 06:21:24 42° W 06:27:06 10° SSW
Cosmos 1674 2.8 06:17:41 10° S 06:21:26 78° E 06:25:13 10° N
Cosmos 1076 Rocket 3.4 06:18:26 10° S 06:22:39 75° W 06:26:54 10° N
Cosmos 2082 Rocket 3.1 06:17:52 10° SW 06:22:51 31° WNW 06:27:52 10° N
CENTAUR R/B 3.5 06:17:15 10° NW 06:24:55 45° WSW 06:32:46 10° S
Cosmos 1408 Rocket 3.8 06:22:04 10° S 06:26:30 77° E 06:30:58 10° N
Meteor 1-31 Rocket 3.3 06:24:10 10° N 06:27:51 41° WNW 06:31:33 10° SW
Cosmos 1833 Rocket 3.6 06:23:29 10° SW 06:28:19 30° WNW 06:33:12 10° N
SJ-6F 4.5 06:24:29 10° N 06:28:36 66° WNW 06:32:44 10° SSW
SL-24 R/B 4.4 06:24:31 10° N 06:29:17 62° W 06:34:03 10° SSW
GPS 2-05 Rocket1 3.2 06:25:58 10° W 06:29:23 54° NNW 06:32:42 10° ENE
CZ-2C R/B 4.3 06:26:06 10° SSW 06:30:05 33° W 06:34:05 10° NW
Cosmos 1980 Rocket 3.6 06:27:32 10° N 06:32:59 46° ENE 06:38:21 10° SE
